Content
SEND FEEDBACK

Daily
Averages
Monthly
Summary
United States of America

STATEN ISLAND, NEW YORK


Home > North America > United States > New York
Elevation: 152 feet     Latitude: 40 35N     Longitude: 074 09W

WEATHER
 
SELECT A DAY
Number of Records: 189,550;   Date Range: 1/1/95 - 7/23/14
 
SHARE

PRINT THIS DATA

[ ← Previous Day ]
WEATHER ALMANAC - JUNE 26, 2013
[ Next Day → ]
[ °C ]   °F
We're sorry. There is no daily almanac available for Staten Island, New York on June 26, 2013.
WEATHER BY HOUR - JUNE 26, 2013
[ °C ]   °F
Local TimeTemperatureDewpointHumidityBarometerVisibilityWind DirectionWind SpeedGust SpeedPrecipitationEventsConditions
1:51 AM75.0 °F70.0 °F84 %29.78 in10.0 miSSW (210°)5.8 mphMostly Cloudy
2:51 AM75.9 °F70.0 °F82 %29.79 in10.0 miWest (260°)11.5 mphMostly Cloudy
3:51 AM73.9 °F68.0 °F82 %29.80 in10.0 miWest (270°)13.8 mphMostly Cloudy
4:51 AM73.0 °F66.0 °F79 %29.81 in10.0 miWest (260°)8.1 mphMostly Cloudy
5:51 AM73.0 °F66.0 °F79 %29.83 in10.0 miWSW (240°)6.9 mphMostly Cloudy
6:51 AM73.9 °F64.9 °F73 %29.84 in10.0 miWSW (240°)8.1 mphMostly Cloudy
7:51 AM75.9 °F64.9 °F69 %29.85 in10.0 miWest (270°)10.4 mphMostly Cloudy
8:51 AM80.1 °F64.9 °F60 %29.84 in10.0 miWNW (290°)5.8 mphMostly Cloudy
9:51 AM81.0 °F64.9 °F58 %29.84 in10.0 miWNW (290°)9.2 mphMostly Cloudy
10:51 AM82.9 °F64.9 °F54 %29.84 in10.0 miWSW (250°)8.1 mphMostly Cloudy
11:51 AM82.0 °F64.0 °F54 %29.84 in10.0 miWest (270°)10.4 mphOvercast
12:51 PM82.9 °F64.0 °F53 %29.85 in10.0 miWest (260°)9.2 mphOvercast
1:51 PM82.9 °F64.9 °F54 %29.85 in10.0 miSW (220°)8.1 mphOvercast
2:51 PM84.9 °F66.0 °F53 %29.84 in10.0 miWSW (240°)10.4 mphOvercast
3:51 PM86.0 °F66.9 °F53 %29.81 in10.0 miSW (230°)11.5 mphMostly Cloudy
4:51 PM87.1 °F64.0 °F46 %29.80 in10.0 miWSW (240°)11.5 mphMostly Cloudy
5:51 PM89.1 °F66.0 °F46 %29.78 in10.0 miWest (280°)9.2 mph17.3 mphMostly Cloudy
6:51 PM86.0 °F64.0 °F48 %29.78 in10.0 miVariable5.8 mph0.00 inOvercast
7:51 PM82.0 °F68.0 °F62 %29.80 in10.0 miSouth (170°)5.8 mphMostly Cloudy
8:51 PM79.0 °F69.1 °F72 %29.80 in10.0 miSouth (180°)8.1 mphMostly Cloudy
9:51 PM77.0 °F70.0 °F79 %29.82 in10.0 miSouth (190°)3.5 mphMostly Cloudy
10:51 PM77.0 °F70.0 °F79 %29.82 in10.0 miSSE (150°)5.8 mphMostly Cloudy
11:51 PM75.9 °F70.0 °F82 %29.83 in10.0 miSouth (170°)4.6 mphMostly Cloudy
Hourly data recorded from KEWR, located miles away from Staten Island, New York







STORIES FROM OUR PARTNERS